FW8343 Weather Reports


Display with metric or nautical units.
time (UTC)temp
F
wind
direction
speed
MPH
gust
MPH
rain 1hr
in
rain 24hr
in
rain mn
in
humidity
%
barometer
mb
20260901150035 74 0 0.0 3.0 0.00 0.00 0.00 70 1016.1
20260901145521 74 0 0.0 1.0 0.00 0.00 0.00 72 1016.2
20260901145019 74 0 0.0 2.0 0.00 0.00 0.00 72 1016.1
20260901144534 74 0 0.0 2.0 0.00 0.00 0.00 72 1016.0
20260901144025 73 229 0.0 1.0 0.00 0.00 0.00 74 1016.0
20260901143520 73 0 0.0 1.0 0.00 0.00 0.00 76 1016.0
20260901143035 72 0 0.0 2.0 0.00 0.00 0.00 79 1015.9
20260901142516 71 229 0.0 5.0 0.00 0.00 0.00 82 1016.0
20260901142023 70 229 0.0 5.0 0.00 0.00 0.00 79 1015.9
20260901141544 70 0 0.0 2.0 0.00 0.00 0.00 82 1015.9
20260901141026 69 349 0.0 2.0 0.00 0.00 0.00 84 1015.9
20260901140524 68 0 0.0 0.0 0.00 0.00 0.00 88 1015.9
20260901140035 66 0 0.0 0.0 0.00 0.00 0.00 92 1016.0
20260901135524 65 0 0.0 0.0 0.00 0.00 0.00 93 1016.0
20260901135021 65 0 0.0 0.0 0.00 0.00 0.00 95 1016.1
20260901134535 64 0 0.0 0.0 0.00 0.00 0.00 97 1016.1
20260901134021 63 0 0.0 0.0 0.00 0.00 0.00 98 1016.1
20260901133518 63 0 0.0 0.0 0.00 0.00 0.00 100 1016.1
20260901133037 62 0 0.0 0.0 0.00 0.00 0.00 100 1016.2
20260901132520 61 0 0.0 0.0 0.00 0.00 0.00 100 1016.1
20260901132020 60 0 0.0 0.0 0.00 0.00 0.00 100 1016.0
20260901131536 60 0 0.0 0.0 0.00 0.00 0.00 100 1016.1
20260901131021 59 0 0.0 0.0 0.00 0.00 0.00 100 1016.0
20260901130521 59 0 0.0 0.0 0.00 0.00 0.00 100 1015.9
20260901130032 59 0 0.0 0.0 0.00 0.00 0.00 100 1015.8
20260901125521 58 0 0.0 0.0 0.00 0.00 0.00 100 1015.8
20260901125018 58 0 0.0 0.0 0.00 0.00 0.00 99 1015.8
20260901124540 58 0 0.0 0.0 0.00 0.00 0.00 99 1015.7
20260901124016 58 0 0.0 0.0 0.00 0.00 0.00 99 1015.7
20260901123520 58 0 0.0 0.0 0.00 0.00 0.00 99 1015.6
20260901123040 58 0 0.0 0.0 0.00 0.00 0.00 99 1015.6
20260901122524 58 0 0.0 0.0 0.00 0.00 0.00 100 1015.5
20260901122019 58 0 0.0 0.0 0.00 0.00 0.00 100 1015.5
20260901121538 58 0 0.0 0.0 0.00 0.00 0.00 100 1015.6
20260901121024 58 0 0.0 0.0 0.00 0.00 0.00 100 1015.5
20260901120521 57 0 0.0 0.0 0.00 0.00 0.00 100 1015.4
20260901120036 57 0 0.0 0.0 0.00 0.00 0.00 99 1015.4
20260901115523 57 0 0.0 0.0 0.00 0.00 0.00 99 1015.4
20260901115025 56 0 0.0 0.0 0.00 0.00 0.00 99 1015.3
20260901114536 57 0 0.0 0.0 0.00 0.00 0.00 99 1015.2
20260901114019 57 0 0.0 0.0 0.00 0.00 0.00 99 1015.1
20260901113520 57 0 0.0 0.0 0.00 0.00 0.00 99 1015.1
20260901113037 57 0 0.0 0.0 0.00 0.00 0.00 99 1015.1
20260901112521 56 0 0.0 0.0 0.00 0.00 0.00 98 1014.9
20260901112017 57 0 0.0 0.0 0.00 0.00 0.00 98 1014.8
20260901111535 57 0 0.0 0.0 0.00 0.00 0.00 99 1014.7
20260901111018 57 0 0.0 0.0 0.00 0.00 0.00 99 1014.7
20260901110515 57 0 0.0 0.0 0.00 0.00 0.00 98 1014.6
20260901110037 58 0 0.0 0.0 0.00 0.00 0.00 99 1014.7
20260901105520 58 0 0.0 0.0 0.00 0.00 0.00 99 1014.6
20260901105022 58 0 0.0 0.0 0.00 0.00 0.00 99 1014.6
20260901104540 57 0 0.0 0.0 0.00 0.00 0.00 99 1014.6
20260901104020 57 0 0.0 0.0 0.00 0.00 0.00 99 1014.7
20260901103519 57 0 0.0 0.0 0.00 0.00 0.00 98 1014.7
20260901103037 57 0 0.0 0.0 0.00 0.00 0.00 98 1014.7
20260901102525 57 0 0.0 0.0 0.00 0.00 0.00 98 1014.7
20260901102017 58 0 0.0 0.0 0.00 0.00 0.00 99 1014.7
20260901101538 58 0 0.0 0.0 0.00 0.00 0.00 99 1014.8
20260901101018 58 0 0.0 0.0 0.00 0.00 0.00 98 1014.7
20260901100516 58 0 0.0 0.0 0.00 0.00 0.00 99 1014.7
20260901100034 57 0 0.0 0.0 0.00 0.00 0.00 98 1014.7
20260901095521 58 0 0.0 0.0 0.00 0.00 0.00 98 1014.7
20260901095021 58 0 0.0 0.0 0.00 0.00 0.00 98 1014.6
20260901094538 58 0 0.0 0.0 0.00 0.00 0.00 98 1014.7
20260901094020 58 0 0.0 0.0 0.00 0.00 0.00 98 1014.7
20260901093519 58 0 0.0 0.0 0.00 0.00 0.00 98 1014.7
20260901093035 58 0 0.0 0.0 0.00 0.00 0.00 98 1014.7
20260901092518 59 0 0.0 0.0 0.00 0.00 0.00 98 1014.7
20260901092021 59 0 0.0 0.0 0.00 0.00 0.00 98 1014.6
20260901091535 58 0 0.0 0.0 0.00 0.00 0.00 98 1014.6
20260901091017 59 0 0.0 0.0 0.00 0.00 0.00 98 1014.7
20260901090515 59 0 0.0 0.0 0.00 0.00 0.00 98 1014.7
20260901090034 58 0 0.0 0.0 0.00 0.00 0.00 97 1014.6
20260901085519 59 0 0.0 0.0 0.00 0.00 0.00 98 1014.6
20260901085021 59 0 0.0 0.0 0.00 0.00 0.00 98 1014.6
20260901084534 59 0 0.0 0.0 0.00 0.00 0.00 97 1014.6
20260901084023 60 0 0.0 0.0 0.00 0.00 0.00 98 1014.7
20260901083518 60 0 0.0 0.0 0.00 0.00 0.00 99 1014.7
20260901083036 59 0 0.0 0.0 0.00 0.00 0.00 98 1014.7
20260901082520 59 0 0.0 0.0 0.00 0.00 0.00 98 1014.7
20260901082018 59 0 0.0 0.0 0.00 0.00 0.00 98 1014.7
20260901081535 59 0 0.0 0.0 0.00 0.00 0.00 97 1014.8
20260901081020 60 0 0.0 0.0 0.00 0.00 0.00 98 1014.6
20260901080522 59 0 0.0 0.0 0.00 0.00 0.00 97 1014.7
20260901080038 60 0 0.0 0.0 0.00 0.00 0.00 97 1014.8
20260901075520 61 0 0.0 0.0 0.00 0.00 0.00 98 1014.7
20260901075020 61 0 0.0 0.0 0.00 0.00 0.00 98 1014.7
20260901074543 61 0 0.0 0.0 0.00 0.00 0.00 98 1014.7
20260901074019 61 0 0.0 0.0 0.00 0.00 0.00 98 1014.8
20260901073522 61 0 0.0 0.0 0.00 0.00 0.00 98 1014.7
20260901073039 61 0 0.0 0.0 0.00 0.00 0.00 98 1014.8
20260901072520 61 0 0.0 0.0 0.00 0.00 0.00 98 1014.8
20260901072016 62 0 0.0 0.0 0.00 0.00 0.00 98 1014.9
20260901071536 62 0 0.0 0.0 0.00 0.00 0.00 98 1014.8
20260901071022 62 0 0.0 0.0 0.00 0.00 0.00 98 1014.8
20260901070523 62 0 0.0 0.0 0.00 0.00 0.00 98 1014.8
20260901070035 61 0 0.0 0.0 0.00 0.00 0.00 98 1014.9
20260901065522 61 0 0.0 0.0 0.00 0.00 0.00 98 1014.9
20260901065020 62 0 0.0 0.0 0.00 0.00 0.00 98 1015.0
20260901064537 62 0 0.0 0.0 0.00 0.00 0.00 98 1015.0
20260901064020 61 0 0.0 0.0 0.00 0.00 0.00 98 1015.0
20260901063520 61 0 0.0 0.0 0.00 0.00 0.00 98 1015.0
20260901063036 61 0 0.0 0.0 0.00 0.00 0.00 98 1015.0
20260901062518 61 0 0.0 0.0 0.00 0.00 0.00 97 1015.0
20260901062018 61 0 0.0 0.0 0.00 0.00 0.00 97 1015.0
20260901061537 61 0 0.0 0.0 0.00 0.00 0.00 97 1015.0
20260901061020 62 0 0.0 0.0 0.00 0.00 0.00 97 1015.0
20260901060520 62 0 0.0 0.0 0.00 0.00 0.00 97 1015.0
20260901060034 62 0 0.0 0.0 0.00 0.00 0.00 97 1014.8
20260901055522 62 0 0.0 0.0 0.00 0.00 0.00 97 1014.8
20260901055022 62 0 0.0 0.0 0.00 0.00 0.00 97 1014.9
20260901054537 62 0 0.0 0.0 0.00 0.00 0.00 97 1014.8
20260901054021 62 0 0.0 0.0 0.00 0.00 0.00 97 1014.8
20260901053520 62 0 0.0 0.0 0.00 0.00 0.00 97 1014.8
20260901053049 62 0 0.0 0.0 0.00 0.00 0.00 97 1014.8
20260901052518 63 0 0.0 0.0 0.00 0.00 0.00 97 1014.8
20260901052018 63 0 0.0 0.0 0.00 0.00 0.00 96 1014.8
20260901051552 63 0 0.0 0.0 0.00 0.00 0.00 97 1014.8
20260901051021 64 0 0.0 0.0 0.00 0.00 0.00 97 1014.9
20260901050520 64 0 0.0 0.0 0.00 0.00 0.00 97 1014.7
20260901050034 63 0 0.0 0.0 0.00 0.00 0.00 97 1014.7
20260901045519 63 0 0.0 0.0 0.00 0.00 0.00 96 1014.6
20260901045024 63 0 0.0 0.0 0.00 0.00 0.00 96 1014.6
20260901044537 63 0 0.0 0.0 0.00 0.00 0.00 96 1014.6
20260901044018 63 0 0.0 0.0 0.00 0.00 0.00 95 1014.6
20260901043518 63 0 0.0 0.0 0.00 0.00 0.00 94 1014.6
20260901043040 64 0 0.0 0.0 0.00 0.00 0.00 96 1014.5
20260901042519 64 0 0.0 0.0 0.00 0.00 0.00 95 1014.5
20260901042017 64 0 0.0 0.0 0.00 0.00 0.00 94 1014.5
20260901041551 64 0 0.0 0.0 0.00 0.00 0.00 95 1014.6
20260901041021 64 0 0.0 0.0 0.00 0.00 0.00 95 1014.6
20260901040520 64 0 0.0 0.0 0.00 0.00 0.00 95 1014.6
20260901040036 64 0 0.0 0.0 0.00 0.00 0.00 95 1014.6
20260901035520 64 0 0.0 0.0 0.00 0.00 0.00 95 1014.5
20260901035019 64 0 0.0 0.0 0.00 0.00 0.00 95 1014.5
20260901034535 64 0 0.0 0.0 0.00 0.00 0.00 94 1014.5
20260901034018 64 0 0.0 0.0 0.00 0.00 0.00 94 1014.5
20260901033518 64 0 0.0 0.0 0.00 0.00 0.00 94 1014.5
20260901033036 65 0 0.0 0.0 0.00 0.00 0.00 93 1014.4
20260901032519 65 0 0.0 0.0 0.00 0.00 0.00 93 1014.5
20260901032024 65 0 0.0 0.0 0.00 0.00 0.00 92 1014.4
20260901031551 65 0 0.0 0.0 0.00 0.00 0.00 92 1014.3
20260901031016 65 0 0.0 0.0 0.00 0.00 0.00 92 1014.4
20260901030518 65 0 0.0 0.0 0.00 0.00 0.00 91 1014.4
20260901030035 65 0 0.0 0.0 0.00 0.00 0.00 89 1014.5
20260901025519 66 0 0.0 0.0 0.00 0.00 0.00 90 1014.4
20260901025025 66 0 0.0 0.0 0.00 0.00 0.00 90 1014.3
20260901024536 66 0 0.0 0.0 0.00 0.00 0.00 89 1014.3
20260901024018 66 0 0.0 0.0 0.00 0.00 0.00 88 1014.3
20260901023520 67 0 0.0 0.0 0.00 0.00 0.00 88 1014.4
20260901023039 67 0 0.0 0.0 0.00 0.00 0.00 88 1014.3
20260901022520 67 0 0.0 0.0 0.00 0.00 0.00 86 1014.3
20260901022020 67 0 0.0 0.0 0.00 0.00 0.00 86 1014.3
20260901021536 67 0 0.0 0.0 0.00 0.00 0.00 85 1014.3
20260901021021 67 0 0.0 0.0 0.00 0.00 0.00 85 1014.2
20260901020524 67 0 0.0 0.0 0.00 0.00 0.00 83 1014.2
20260901020036 68 0 0.0 0.0 0.00 0.00 0.00 83 1014.1
20260901015520 68 0 0.0 0.0 0.00 0.00 0.00 82 1014.2
20260901015024 68 0 0.0 0.0 0.00 0.00 0.00 81 1014.2
20260901014544 69 0 0.0 0.0 0.00 0.00 0.00 81 1014.2
20260901014016 69 0 0.0 0.0 0.00 0.00 0.00 80 1014.2
20260901013520 69 0 0.0 0.0 0.00 0.00 0.00 80 1014.1
20260901013035 70 0 0.0 0.0 0.00 0.00 0.00 81 1014.1
20260901012519 70 0 0.0 0.0 0.00 0.00 0.00 78 1013.9
20260901012019 70 0 0.0 0.0 0.00 0.00 0.00 76 1013.9
20260901011533 70 0 0.0 0.0 0.00 0.00 0.00 76 1013.8
20260901011023 71 0 0.0 0.0 0.00 0.00 0.00 74 1013.8
20260901010519 71 0 0.0 0.0 0.00 0.00 0.00 74 1013.7
20260901010034 72 0 0.0 0.0 0.00 0.00 0.00 73 1013.6
20260901005518 72 0 0.0 0.0 0.00 0.00 0.00 71 1013.7
20260901005019 73 0 0.0 0.0 0.00 0.00 0.00 71 1013.6
20260901004537 74 0 0.0 0.0 0.00 0.00 0.00 71 1013.5
20260901004021 75 0 0.0 0.0 0.00 0.00 0.00 67 1013.4
20260901003521 76 0 0.0 0.0 0.00 0.00 0.00 72 1013.5
20260901003035 76 0 0.0 0.0 0.00 0.00 0.00 69 1013.4
20260901002518 76 0 0.0 0.0 0.00 0.00 0.00 68 1013.4
20260901002020 77 0 0.0 0.0 0.00 0.00 0.00 68 1013.3
20260901001546 77 0 0.0 0.0 0.00 0.00 0.00 65 1013.3
20260901001021 78 0 0.0 0.0 0.00 0.00 0.00 64 1013.3
20260901000521 79 0 0.0 0.0 0.00 0.00 0.00 60 1013.1
20260901000036 79 0 0.0 0.0 0.00 0.00 0.00 66 1013.1
20260831235521 80 0 0.0 0.0 0.00 0.00 0.00 59 1013.1
20260831235019 80 0 0.0 0.0 0.00 0.00 0.00 55 1013.0
20260831234538 80 0 0.0 0.0 0.00 0.00 0.00 54 1013.1
20260831234019 81 0 0.0 1.0 0.00 0.00 0.00 54 1013.1
20260831233516 81 0 0.0 1.0 0.00 0.00 0.00 53 1013.1
20260831233037 81 0 0.0 1.0 0.00 0.00 0.00 53 1013.1
20260831232522 82 0 0.0 3.0 0.00 0.00 0.00 53 1013.1
20260831232021 82 0 0.0 3.0 0.00 0.00 0.00 55 1013.1
20260831231535 82 0 0.0 2.0 0.00 0.00 0.00 53 1013.2
20260831231020 83 349 0.0 2.0 0.00 0.00 0.00 52 1013.1
20260831230520 83 0 0.0 3.0 0.00 0.00 0.00 51 1013.1
20260831230036 83 0 1.0 4.0 0.00 0.00 0.00 50 1013.1
20260831225521 83 329 0.0 4.0 0.00 0.00 0.00 51 1013.0
20260831225019 83 0 0.0 3.0 0.00 0.00 0.00 47 1012.9
20260831224534 83 0 0.0 2.0 0.00 0.00 0.00 53 1013.0
20260831224020 83 0 0.0 3.0 0.00 0.00 0.00 50 1012.9
20260831223520 84 0 0.0 3.0 0.00 0.00 0.00 46 1013.0
20260831223033 84 0 0.0 3.0 0.00 0.00 0.00 49 1013.0
20260831222520 84 300 0.0 4.0 0.00 0.00 0.00 50 1012.9
20260831222021 84 0 1.0 6.0 0.00 0.00 0.00 53 1012.9
20260831221537 84 355 1.0 6.0 0.00 0.00 0.00 52 1012.9
20260831221019 84 0 0.0 3.0 0.00 0.00 0.00 57 1012.9
20260831220522 84 311 0.0 4.0 0.00 0.00 0.00 54 1012.8
20260831220035 84 310 1.0 4.0 0.00 0.00 0.00 57 1012.9
20260831215516 84 0 1.0 4.0 0.00 0.00 0.00 57 1012.9
20260831215020 84 349 0.0 2.0 0.00 0.00 0.00 57 1012.8
20260831214534 83 274 0.0 3.0 0.00 0.00 0.00 59 1012.9
20260831214020 83 274 0.0 3.0 0.00 0.00 0.00 57 1012.7
20260831213520 83 257 1.0 5.0 0.00 0.00 0.00 60 1012.7
20260831213034 83 269 0.0 5.0 0.00 0.00 0.00 65 1012.8
20260831212521 83 0 0.0 5.0 0.00 0.00 0.00 68 1012.7
20260831212021 82 0 0.0 4.0 0.00 0.00 0.00 70 1012.5
20260831211535 82 0 0.0 5.0 0.00 0.00 0.00 70 1012.5
20260831211017 82 233 0.0 5.0 0.00 0.00 0.00 68 1012.5
20260831210517 82 0 1.0 5.0 0.00 0.00 0.00 69 1012.5
20260831210038 82 0 0.0 5.0 0.00 0.00 0.00 70 1012.5
20260831205521 82 233 1.0 5.0 0.00 0.00 0.00 72 1012.5
20260831205020 82 0 1.0 5.0 0.00 0.00 0.00 72 1012.5
20260831204535 82 233 2.0 5.0 0.00 0.00 0.00 72 1012.5
20260831204021 82 225 1.0 5.0 0.00 0.00 0.00 73 1012.5
20260831203520 82 0 0.0 2.0 0.00 0.00 0.00 74 1012.5
20260831203035 81 0 0.0 2.0 0.00 0.00 0.00 75 1012.4
20260831202520 81 225 0.0 2.0 0.00 0.00 0.00 78 1012.5
20260831202021 80 0 0.0 5.0 0.00 0.00 0.00 77 1012.5
20260831201545 80 0 0.0 7.0 0.00 0.00 0.00 79 1012.5
20260831201021 80 225 3.0 7.0 0.00 0.00 0.00 79 1012.4
20260831200517 79 223 3.0 7.0 0.00 0.00 0.00 80 1012.5
20260831200036 78 0 0.0 4.0 0.00 0.00 0.00 83 1012.4
20260831195515 78 175 1.0 4.0 0.00 0.00 0.00 83 1012.4
20260831195020 78 0 0.0 4.0 0.00 0.00 0.00 85 1012.4
20260831194535 78 175 2.0 4.0 0.00 0.00 0.00 85 1012.5
20260831194026 77 175 0.0 5.0 0.00 0.00 0.00 86 1012.5
20260831193520 77 175 1.0 5.0 0.00 0.00 0.00 85 1012.4
20260831193032 77 175 2.0 5.0 0.00 0.00 0.00 86 1012.5
20260831192519 77 229 2.0 6.0 0.00 0.00 0.00 86 1012.5
20260831192020 77 229 1.0 6.0 0.00 0.00 0.00 86 1012.4
20260831191536 77 214 0.0 4.0 0.00 0.00 0.00 86 1012.4
20260831191016 77 214 0.0 4.0 0.00 0.00 0.00 87 1012.4
20260831190519 76 214 2.0 4.0 0.00 0.00 0.00 88 1012.5
20260831190036 76 219 1.0 6.0 0.00 0.00 0.00 87 1012.5
20260831185520 76 219 0.0 6.0 0.00 0.00 0.00 87 1012.6
20260831185023 76 0 0.0 5.0 0.00 0.00 0.00 88 1012.8
20260831184536 76 219 2.0 5.0 0.00 0.00 0.00 87 1012.8
20260831184021 76 0 0.0 4.0 0.00 0.00 0.00 88 1012.7
20260831183519 76 0 1.0 4.0 0.00 0.00 0.00 87 1012.8
20260831183035 76 219 0.0 4.0 0.00 0.00 0.00 88 1012.8
20260831182518 76 0 0.0 5.0 0.00 0.00 0.00 90 1012.7
20260831182018 76 0 0.0 5.0 0.00 0.00 0.00 89 1012.8
20260831181533 75 219 2.0 4.0 0.00 0.00 0.00 89 1012.6
20260831181020 75 219 0.0 3.0 0.00 0.00 0.00 90 1012.6
20260831180520 75 0 0.0 2.0 0.00 0.00 0.00 90 1012.6
20260831180037 75 0 0.0 5.0 0.00 0.00 0.00 91 1012.6
20260831175519 74 0 0.0 5.0 0.00 0.00 0.00 91 1012.8
20260831175019 74 219 2.0 5.0 0.00 0.00 0.00 91 1012.7
20260831174535 74 0 0.0 1.0 0.00 0.00 0.00 92 1012.6
20260831174016 74 0 0.0 3.0 0.00 0.00 0.00 92 1012.7
20260831173519 74 0 0.0 3.0 0.00 0.00 0.00 92 1012.7
20260831173034 74 219 0.0 3.0 0.00 0.00 0.00 93 1012.7
20260831172521 73 0 0.0 4.0 0.00 0.00 0.00 93 1012.8
20260831172020 73 219 1.0 5.0 0.00 0.00 0.00 93 1012.8
20260831171534 73 219 1.0 5.0 0.00 0.00 0.00 93 1012.8
20260831171019 73 167 2.0 5.0 0.00 0.00 0.00 93 1012.7
20260831170521 73 167 0.0 4.0 0.00 0.00 0.00 94 1012.7
20260831170039 73 0 1.0 4.0 0.00 0.00 0.00 94 1012.6
20260831165515 73 167 0.0 4.0 0.00 0.00 0.00 95 1012.6
20260831165019 72 167 0.0 5.0 0.00 0.00 0.00 94 1012.6
20260831164536 72 167 2.0 5.0 0.00 0.00 0.00 95 1012.6
20260831164020 72 167 0.0 4.0 0.00 0.00 0.00 95 1012.6
20260831163521 72 0 0.0 4.0 0.00 0.00 0.00 95 1012.6
20260831163035 72 0 2.0 4.0 0.00 0.00 0.00 95 1012.5
20260831162520 72 167 1.0 4.0 0.00 0.00 0.00 95 1012.5
20260831162019 72 0 0.0 3.0 0.00 0.00 0.00 95 1012.5
20260831161537 72 0 0.0 4.0 0.00 0.00 0.00 95 1012.4
20260831161018 72 0 1.0 4.0 0.00 0.00 0.00 95 1012.3
20260831160518 72 167 0.0 4.0 0.00 0.00 0.00 95 1012.3
20260831160050 72 167 0.0 4.0 0.00 0.00 0.00 95 1012.1
20260831155520 72 167 1.0 4.0 0.00 0.00 0.00 95 1012.2
20260831155023 72 0 0.0 3.0 0.00 0.00 0.00 95 1012.2
20260831154600 72 167 0.0 5.0 0.00 0.00 0.00 95 1012.3
20260831154021 72 167 1.0 5.0 0.00 0.00 0.00 95 1012.1
20260831153520 72 167 3.0 5.0 0.00 0.00 0.00 95 1012.0
20260831153034 72 167 1.0 6.0 0.00 0.00 0.00 95 1011.9
20260831152524 71 0 2.0 6.0 0.00 0.00 0.00 95 1011.8
20260831152019 71 180 2.0 6.0 0.00 0.00 0.00 95 1011.8
20260831151537 71 164 2.0 5.0 0.00 0.00 0.00 95 1011.8
20260831151016 71 164 1.0 6.0 0.00 0.00 0.00 95 1011.7
20260831150521 71 164 4.0 6.0 0.00 0.00 0.00 95 1011.7